| time (UTC) | temp C | wind direction | speed KPH | gust KPH | rain 1hr cm | rain 24hr cm | rain mn cm | humidity % | barometer mb |
| 20260503224325 | 20 | 252 | 0.0 | 3.2 | 0.00 | 0.00 | 0.00 | 49 | 1039.3 |
| 20260503223326 | 21 | 319 | 0.0 | 3.2 | 0.00 | 0.00 | 0.00 | 49 | 1039.2 |
| 20260503222324 | 21 | 216 | 1.6 | 4.8 | 0.00 | 0.00 | 0.00 | 50 | 1039.2 |
| 20260503221326 | 21 | 283 | 1.6 | 4.8 | 0.00 | 0.00 | 0.00 | 50 | 1039.4 |
| 20260503220326 | 20 | 254 | 1.6 | 4.8 | 0.00 | 0.00 | 0.00 | 51 | 1039.5 |
| 20260503215424 | 20 | 270 | 0.0 | 3.2 | 0.00 | 0.00 | 0.00 | 50 | 1039.5 |
| 20260503215327 | 20 | 262 | 0.0 | 3.2 | 0.00 | 0.00 | 0.00 | 51 | 1039.5 |
| 20260503214424 | 20 | 10 | 1.6 | 6.4 | 0.00 | 0.00 | 0.00 | 53 | 1039.5 |
| 20260503213426 | 20 | 239 | 1.6 | 6.4 | 0.00 | 0.00 | 0.00 | 53 | 1039.5 |
| 20260503213325 | 20 | 273 | 3.2 | 8.0 | 0.00 | 0.00 | 0.00 | 52 | 1039.5 |
| 20260503212326 | 20 | 302 | 0.0 | 1.6 | 0.00 | 0.00 | 0.00 | 52 | 1039.5 |
| 20260503211326 | 20 | 222 | 1.6 | 4.8 | 0.00 | 0.00 | 0.00 | 52 | 1039.5 |
| 20260503211228 | 20 | 242 | 3.2 | 8.0 | 0.00 | 0.00 | 0.00 | 52 | 1039.5 |
| 20260503211125 | 20 | 259 | 1.6 | 4.8 | 0.00 | 0.00 | 0.00 | 52 | 1039.5 |
| 20260503210125 | 20 | 273 | 1.6 | 6.4 | 0.00 | 0.00 | 0.00 | 53 | 1039.6 |
| 20260503205125 | 20 | 283 | 0.0 | 3.2 | 0.00 | 0.00 | 0.00 | 53 | 1039.6 |
| 20260503203224 | 20 | 230 | 0.0 | 4.8 | 0.00 | 0.00 | 0.00 | 54 | 1039.7 |
| 20260503203125 | 20 | 242 | 3.2 | 9.7 | 0.00 | 0.00 | 0.00 | 53 | 1039.8 |
| 20260503202224 | 20 | 273 | 0.0 | 3.2 | 0.00 | 0.00 | 0.00 | 55 | 1039.8 |
| 20260503201226 | 20 | 194 | 0.0 | 1.6 | 0.00 | 0.00 | 0.00 | 53 | 1039.9 |
| 20260503201127 | 20 | 228 | 1.6 | 4.8 | 0.00 | 0.00 | 0.00 | 52 | 1039.9 |
| 20260503200126 | 20 | 324 | 0.0 | 4.8 | 0.00 | 0.00 | 0.00 | 52 | 1039.9 |
| 20260503195127 | 20 | 271 | 1.6 | 11.3 | 0.00 | 0.00 | 0.00 | 52 | 1040.0 |
| 20260503195025 | 20 | 275 | 1.6 | 6.4 | 0.00 | 0.00 | 0.00 | 51 | 1040.0 |
| 20260503192125 | 21 | 234 | 3.2 | 6.4 | 0.00 | 0.00 | 0.00 | 48 | 1039.9 |
| 20260503192025 | 21 | 314 | 3.2 | 8.0 | 0.00 | 0.00 | 0.00 | 47 | 1039.9 |
| 20260503191024 | 20 | 47 | 0.0 | 1.6 | 0.00 | 0.00 | 0.00 | 51 | 1040.1 |
| 20260503190925 | 20 | 271 | 1.6 | 9.7 | 0.00 | 0.00 | 0.00 | 51 | 1040.1 |
| 20260503190827 | 20 | 324 | 1.6 | 8.0 | 0.00 | 0.00 | 0.00 | 50 | 1040.0 |
| 20260503185924 | 20 | 333 | 0.0 | 6.4 | 0.00 | 0.00 | 0.00 | 51 | 1040.2 |
| 20260503184027 | 18 | 345 | 1.6 | 4.8 | 0.00 | 0.00 | 0.00 | 56 | 1040.3 |
| 20260503182125 | 17 | 235 | 0.0 | 1.6 | 0.00 | 0.00 | 0.00 | 60 | 1040.5 |
| 20260503181126 | 17 | 169 | 0.0 | 1.6 | 0.00 | 0.00 | 0.00 | 65 | 1040.6 |
| 20260503180126 | 16 | 269 | 0.0 | 3.2 | 0.00 | 0.00 | 0.00 | 65 | 1040.7 |
| 20260503175225 | 16 | 225 | 0.0 | 1.6 | 0.00 | 0.00 | 0.00 | 68 | 1040.8 |
| 20260503174225 | 15 | 300 | 0.0 | 1.6 | 0.00 | 0.00 | 0.00 | 69 | 1040.8 |
| 20260503172226 | 15 | 279 | 0.0 | 1.6 | 0.00 | 0.00 | 0.00 | 73 | 1040.7 |
| 20260503170325 | 15 | 23 | 0.0 | 1.6 | 0.00 | 0.00 | 0.00 | 73 | 1040.6 |
| 20260503170226 | 15 | 45 | 0.0 | 0.0 | 0.00 | 0.00 | 0.00 | 73 | 1040.6 |
| 20260503150627 | 13 | 270 | 0.0 | 0.0 | 0.00 | 0.00 | 0.00 | 85 | 1039.7 |
| 20260503130925 | 12 | 247 | 0.0 | 0.0 | 0.00 | 0.00 | 0.00 | 90 | 1038.8 |
| 20260503130827 | 12 | 247 | 0.0 | 0.0 | 0.00 | 0.00 | 0.00 | 90 | 1038.7 |
| 20260503110124 | 11 | 247 | 0.0 | 0.0 | 0.00 | 0.00 | 0.00 | 89 | 1038.3 |
| 20260503080827 | 12 | 247 | 0.0 | 0.0 | 0.00 | 0.00 | 0.00 | 87 | 1039.0 |
| 20260503072824 | 12 | 247 | 0.0 | 0.0 | 0.00 | 0.00 | 0.00 | 87 | 1039.0 |
| 20260503071825 | 12 | 247 | 0.0 | 0.0 | 0.00 | 0.00 | 0.00 | 86 | 1039.0 |
| 20260503070825 | 12 | 247 | 0.0 | 0.0 | 0.00 | 0.00 | 0.00 | 87 | 1038.8 |
| 20260503060111 | 12 | 247 | 0.0 | 0.0 | 0.00 | 0.00 | 0.00 | 90 | 1038.6 |
| 20260503055011 | 12 | 247 | 0.0 | 0.0 | 0.00 | 0.00 | 0.00 | 92 | 1038.4 |
| 20260503053013 | 11 | 247 | 0.0 | 0.0 | 0.00 | 0.00 | 0.00 | 93 | 1038.3 |
| 20260503052111 | 11 | 247 | 0.0 | 0.0 | 0.00 | 0.00 | 0.00 | 93 | 1038.2 |
| 20260503051110 | 11 | 247 | 0.0 | 0.0 | 0.00 | 0.00 | 0.00 | 92 | 1038.2 |
| 20260503050111 | 11 | 247 | 0.0 | 0.0 | 0.00 | 0.00 | 0.00 | 92 | 1038.2 |
| 20260503045112 | 11 | 247 | 0.0 | 0.0 | 0.00 | 0.00 | 0.00 | 91 | 1038.1 |
| 20260503045011 | 11 | 247 | 0.0 | 0.0 | 0.00 | 0.00 | 0.00 | 91 | 1038.1 |
| 20260503044011 | 11 | 247 | 0.0 | 0.0 | 0.00 | 0.00 | 0.00 | 90 | 1038.0 |
| 20260503043111 | 11 | 247 | 0.0 | 0.0 | 0.00 | 0.00 | 0.00 | 90 | 1037.9 |
| 20260503042112 | 12 | 247 | 0.0 | 0.0 | 0.00 | 0.00 | 0.00 | 90 | 1037.9 |
| 20260503042011 | 12 | 247 | 0.0 | 0.0 | 0.00 | 0.00 | 0.00 | 90 | 1037.9 |
| 20260503041111 | 12 | 247 | 0.0 | 1.6 | 0.00 | 0.00 | 0.00 | 90 | 1038.1 |
| 20260503040209 | 12 | 315 | 0.0 | 0.0 | 0.00 | 0.00 | 0.00 | 89 | 1037.9 |
| 20260503035112 | 12 | 315 | 0.0 | 0.0 | 0.00 | 0.00 | 0.00 | 88 | 1037.9 |
| 20260503034210 | 12 | 315 | 0.0 | 0.0 | 0.00 | 0.00 | 0.00 | 88 | 1037.8 |
| 20260503034111 | 12 | 315 | 0.0 | 0.0 | 0.00 | 0.00 | 0.00 | 88 | 1037.8 |
| 20260503034011 | 12 | 315 | 0.0 | 0.0 | 0.00 | 0.00 | 0.00 | 87 | 1037.9 |
| 20260503033012 | 12 | 270 | 0.0 | 1.6 | 0.00 | 0.00 | 0.00 | 87 | 1037.7 |
| 20260503032012 | 12 | 333 | 0.0 | 0.0 | 0.00 | 0.00 | 0.00 | 86 | 1037.9 |
| 20260503031011 | 12 | 202 | 0.0 | 0.0 | 0.00 | 0.00 | 0.00 | 84 | 1037.8 |
| 20260503030010 | 13 | 285 | 0.0 | 3.2 | 0.00 | 0.00 | 0.00 | 84 | 1037.7 |
| 20260503025014 | 13 | 275 | 0.0 | 4.8 | 0.00 | 0.00 | 0.00 | 82 | 1037.5 |
| 20260503024110 | 13 | 83 | 0.0 | 3.2 | 0.00 | 0.00 | 0.00 | 80 | 1037.4 |
| 20260503023112 | 14 | 245 | 0.0 | 1.6 | 0.00 | 0.00 | 0.00 | 77 | 1037.2 |
| 20260503023010 | 14 | 325 | 0.0 | 3.2 | 0.00 | 0.00 | 0.00 | 77 | 1037.2 |
| 20260503022011 | 15 | 194 | 0.0 | 1.6 | 0.00 | 0.00 | 0.00 | 74 | 1037.3 |
| 20260503021012 | 16 | 238 | 1.6 | 6.4 | 0.00 | 0.00 | 0.00 | 71 | 1037.3 |
| 20260503020013 | 16 | 14 | 0.0 | 0.0 | 0.00 | 0.00 | 0.00 | 68 | 1037.2 |
| 20260503015911 | 17 | 285 | 0.0 | 1.6 | 0.00 | 0.00 | 0.00 | 68 | 1037.3 |
| 20260503014911 | 17 | 224 | 0.0 | 4.8 | 0.00 | 0.00 | 0.00 | 67 | 1037.2 |
| 20260503013913 | 17 | 204 | 0.0 | 3.2 | 0.00 | 0.00 | 0.00 | 66 | 1037.3 |
| 20260503012911 | 18 | 248 | 0.0 | 3.2 | 0.00 | 0.00 | 0.00 | 65 | 1037.1 |
| 20260503011012 | 18 | 240 | 1.6 | 4.8 | 0.00 | 0.00 | 0.00 | 63 | 1037.2 |
| 20260503010111 | 18 | 225 | 1.6 | 3.2 | 0.00 | 0.00 | 0.00 | 62 | 1037.2 |
| 20260503010013 | 18 | 191 | 0.0 | 3.2 | 0.00 | 0.00 | 0.00 | 63 | 1037.2 |
| 20260503005111 | 18 | 215 | 0.0 | 3.2 | 0.00 | 0.00 | 0.00 | 62 | 1037.2 |
| 20260503003112 | 20 | 215 | 0.0 | 3.2 | 0.00 | 0.00 | 0.00 | 61 | 1037.3 |
| 20260503003013 | 20 | 157 | 0.0 | 1.6 | 0.00 | 0.00 | 0.00 | 61 | 1037.3 |
| 20260503002012 | 20 | 38 | 0.0 | 1.6 | 0.00 | 0.00 | 0.00 | 60 | 1037.4 |
| 20260503001012 | 20 | 127 | 0.0 | 1.6 | 0.00 | 0.00 | 0.00 | 60 | 1037.3 |
| 20260503000010 | 20 | 354 | 1.6 | 6.4 | 0.00 | 0.00 | 0.00 | 60 | 1037.2 |
| 20260502235909 | 20 | 200 | 0.0 | 6.4 | 0.00 | 0.00 | 0.00 | 60 | 1037.3 |
| 20260502234912 | 20 | 337 | 0.0 | 4.8 | 0.00 | 0.00 | 0.00 | 60 | 1037.4 |
| 20260502233911 | 20 | 99 | 0.0 | 1.6 | 0.00 | 0.00 | 0.00 | 60 | 1037.2 |
| 20260502232913 | 20 | 180 | 0.0 | 3.2 | 0.00 | 0.00 | 0.00 | 59 | 1037.3 |
| 20260502231911 | 20 | 220 | 0.0 | 3.2 | 0.00 | 0.00 | 0.00 | 58 | 1037.4 |
| 20260502231812 | 20 | 230 | 1.6 | 11.3 | 0.00 | 0.00 | 0.00 | 59 | 1037.5 |
| 20260502231710 | 20 | 208 | 1.6 | 4.8 | 0.00 | 0.00 | 0.00 | 59 | 1037.4 |
| 20260502230711 | 20 | 269 | 0.0 | 1.6 | 0.00 | 0.00 | 0.00 | 59 | 1037.8 |